STARLINK-1886 (47169 NORAD) Tracking and Keplerian Element Data

This shows tracking and keplerian element data for the satellite.

Feedback or suggestion? Click here.




ElementValue
Catalog47169
NameSTARLINK-1886
Epoch Orbit176
Epoch Day62.91667824
Epoch Year2021
RAAN231.5127
Inclination53.0558
Eccentricity0.0001456
Argument of Perigee70.6046
Mean Anonmoly34.9319
Mean Motion15.39162211
Decay Rate-0.0082572
L11 47169U 20088AZ 21062.91667824 -.00825720 00000-0 -22630-1 0 9999
L22 47169 53.0558 231.5127 0001456 70.6046 34.9319 15.39162211 1769

Live tracking and technical data element details for STARLINK-1886 (NORAD 47169). STARLINK-1886 can be tracked NOW for your location showing map with azimuth and elevation plus other details from your city location.

Track the satellite on the map from your city or location and see movement details for azimuth, elevation, latitude, longitude, range, height, and movement on the map or in text.







IsCatalogInMostPopularTable: catalog: 47169, numindb: 44
Update: records affected: 1



GetName: 47169 STARLINK-1886

Hit Count: updated at: Fri, 05 Mar 2021 07:01:10 GMT